KAL1021 RJAA-RKSI

Flight info

Callsign KAL1021
Flight time 2h 0m
Altitude 38000
Route TETRA8 ENPAR Y16 SAPRA Y685 GUKDO GUKDO3C
Aircraft B77W/H-SDE1E2E3FGHIJ2J3J4J5M1RWXY/LB1D1

Departure

Time 2026-05-06 11:12
Airport Narita International Airport (RJAA)

Arrival

Time 2026-05-06 13:13
Airport Incheon International Airport (RKSI)
Time Latitude Longitude Altitude Speed Heading
2026-05-06 10:54 35.76069 140.38448 144 ft 0 kts 60°
2026-05-06 10:57 35.76060 140.38429 144 ft 2 kts 60°
2026-05-06 10:57 35.76055 140.38417 144 ft 2 kts 60°
2026-05-06 10:58 35.76044 140.38397 144 ft 2 kts 46°
2026-05-06 10:58 35.76037 140.38390 144 ft 2 kts 34°
2026-05-06 10:58 35.76022 140.38380 145 ft 2 kts 18°
2026-05-06 10:58 35.76009 140.38376 145 ft 2 kts
2026-05-06 10:59 35.76000 140.38376 145 ft 2 kts 355°
2026-05-06 10:59 35.75990 140.38377 145 ft 2 kts 346°
2026-05-06 10:59 35.75978 140.38384 145 ft 2 kts 333°
2026-05-06 10:59 35.75972 140.38386 145 ft 0 kts 329°
2026-05-06 11:00 35.75973 140.38386 144 ft 0 kts 329°
2026-05-06 11:04 35.75972 140.38386 144 ft 0 kts 329°
2026-05-06 11:04 35.75981 140.38380 145 ft 2 kts 329°
2026-05-06 11:04 35.76025 140.38348 145 ft 10 kts 329°
2026-05-06 11:05 35.76056 140.38325 145 ft 10 kts 329°
2026-05-06 11:05 35.76114 140.38284 145 ft 11 kts 329°
2026-05-06 11:05 35.76186 140.38231 145 ft 13 kts 329°
2026-05-06 11:05 35.76257 140.38179 145 ft 2 kts 327°
2026-05-06 11:06 35.76261 140.38167 145 ft 1 kts 266°
2026-05-06 11:06 35.76244 140.38118 145 ft 6 kts 262°
2026-05-06 11:06 35.76269 140.38058 143 ft 7 kts 324°
2026-05-06 11:06 35.76325 140.38014 143 ft 10 kts 329°
2026-05-06 11:07 35.76401 140.37901 141 ft 14 kts 262°
2026-05-06 11:07 35.76434 140.37811 140 ft 16 kts 327°
2026-05-06 11:07 35.76571 140.37709 137 ft 22 kts 328°
2026-05-06 11:07 35.76714 140.37607 135 ft 26 kts 331°
2026-05-06 11:08 35.76868 140.37494 133 ft 30 kts 330°
2026-05-06 11:08 35.77071 140.37350 132 ft 36 kts 330°
2026-05-06 11:08 35.77285 140.37192 130 ft 25 kts 327°
2026-05-06 11:08 35.77430 140.37085 129 ft 23 kts 328°
2026-05-06 11:09 35.77490 140.37004 129 ft 0 kts 270°
2026-05-06 11:10 35.77486 140.36974 130 ft 8 kts 256°
2026-05-06 11:10 35.77471 140.36932 131 ft 7 kts 239°
2026-05-06 11:11 35.77445 140.36879 132 ft 8 kts 238°
2026-05-06 11:11 35.77391 140.36859 134 ft 10 kts 147°
2026-05-06 11:11 35.77381 140.36867 134 ft 0 kts 149°
2026-05-06 11:11 35.77342 140.36896 134 ft 20 kts 148°
2026-05-06 11:12 35.77166 140.37025 133 ft 71 kts 150°
2026-05-06 11:12 35.76507 140.37508 136 ft 147 kts 150°
2026-05-06 11:12 35.75530 140.38214 607 ft 169 kts 148°
2026-05-06 11:12 35.74573 140.38953 1565 ft 168 kts 150°
2026-05-06 11:13 35.73560 140.39705 2217 ft 176 kts 152°
2026-05-06 11:13 35.72477 140.40501 2817 ft 189 kts 152°
2026-05-06 11:13 35.71347 140.41313 3596 ft 192 kts 153°
2026-05-06 11:13 35.69844 140.42375 4743 ft 186 kts 153°
2026-05-06 11:14 35.68689 140.43201 5227 ft 202 kts 153°
2026-05-06 11:14 35.67852 140.43797 5542 ft 215 kts 153°
2026-05-06 11:14 35.66514 140.44751 6055 ft 232 kts 153°
2026-05-06 11:14 35.64560 140.46146 6784 ft 253 kts 153°
2026-05-06 11:15 35.63545 140.46872 7272 ft 258 kts 153°
2026-05-06 11:15 35.62002 140.47978 8107 ft 261 kts 154°
2026-05-06 11:15 35.60421 140.49109 8817 ft 269 kts 154°
2026-05-06 11:15 35.58809 140.50262 9630 ft 271 kts 154°
2026-05-06 11:16 35.57138 140.51431 10258 ft 282 kts 157°
2026-05-06 11:16 35.55306 140.52405 10676 ft 299 kts 165°
2026-05-06 11:16 35.53233 140.53082 11154 ft 315 kts 174°
2026-05-06 11:16 35.51017 140.53372 11648 ft 330 kts 182°
2026-05-06 11:17 35.48670 140.53279 12186 ft 345 kts 189°
2026-05-06 11:17 35.45443 140.52506 12905 ft 364 kts 200°
2026-05-06 11:17 35.43841 140.51822 13276 ft 373 kts 205°
2026-05-06 11:17 35.41502 140.50386 14155 ft 378 kts 214°
2026-05-06 11:18 35.39379 140.48547 15186 ft 379 kts 222°
2026-05-06 11:18 35.37499 140.46347 16271 ft 378 kts 230°
2026-05-06 11:18 35.35881 140.43817 17245 ft 380 kts 238°
2026-05-06 11:18 35.34570 140.41002 18154 ft 384 kts 246°
2026-05-06 11:19 35.33615 140.37959 19157 ft 384 kts 253°
2026-05-06 11:19 35.33049 140.34822 20191 ft 385 kts 259°
2026-05-06 11:19 35.32862 140.31564 21162 ft 389 kts 266°
2026-05-06 11:19 35.33122 140.28252 22045 ft 398 kts 277°
2026-05-06 11:20 35.34792 140.24107 23151 ft 426 kts 300°
2026-05-06 11:20 35.36201 140.22414 23701 ft 443 kts 313°
2026-05-06 11:20 35.38980 140.20615 24473 ft 471 kts 333°
2026-05-06 11:20 35.42313 140.19937 25123 ft 499 kts 351°
2026-05-06 11:21 35.45811 140.20380 25636 ft 524 kts
2026-05-06 11:21 35.49311 140.21861 26304 ft 542 kts 20°
2026-05-06 11:21 35.52596 140.24223 27178 ft 551 kts 31°
2026-05-06 11:21 35.55601 140.27174 28122 ft 553 kts 37°
2026-05-06 11:22 35.58593 140.30086 28934 ft 549 kts 27°
2026-05-06 11:22 35.63177 140.32515 29193 ft 546 kts
2026-05-06 11:22 35.65711 140.32844 29296 ft 538 kts 349°
2026-05-06 11:22 35.69363 140.32216 29804 ft 522 kts 335°
2026-05-06 11:23 35.73523 140.29817 30854 ft 487 kts 312°
2026-05-06 11:23 35.75824 140.26930 31380 ft 467 kts 297°
2026-05-06 11:23 35.77004 140.24709 31550 ft 461 kts 290°
2026-05-06 11:23 35.78319 140.21149 31983 ft 453 kts 283°
2026-05-06 11:24 35.79670 140.16411 33159 ft 434 kts 277°
2026-05-06 11:24 35.80186 140.14066 33991 ft 426 kts 277°
2026-05-06 11:24 35.80925 140.10638 35580 ft 408 kts 277°
2026-05-06 11:24 35.81633 140.07335 36975 ft 394 kts 277°
2026-05-06 11:25 35.82309 140.04166 37970 ft 385 kts 276°
2026-05-06 11:25 35.82991 140.00923 38142 ft 390 kts 277°
2026-05-06 11:25 35.83680 139.97685 38141 ft 392 kts 276°
2026-05-06 11:26 35.85075 139.91223 38141 ft 393 kts 277°
2026-05-06 11:26 35.86476 139.84721 38143 ft 392 kts 277°
2026-05-06 11:27 35.87873 139.78215 38137 ft 392 kts 277°
2026-05-06 11:27 35.89259 139.71744 38139 ft 393 kts 276°
2026-05-06 11:28 35.90645 139.65251 38144 ft 392 kts 277°
2026-05-06 11:28 35.91935 139.58765 38136 ft 389 kts 272°
2026-05-06 11:29 35.92751 139.52194 38142 ft 386 kts 271°
2026-05-06 11:29 35.93549 139.45653 38137 ft 386 kts 271°
2026-05-06 11:30 35.94343 139.39117 38140 ft 386 kts 271°
2026-05-06 11:30 35.95134 139.32587 38168 ft 386 kts 271°
2026-05-06 11:31 35.95925 139.26027 38164 ft 387 kts 271°
2026-05-06 11:31 35.96709 139.19499 38162 ft 386 kts 271°
2026-05-06 11:32 35.97622 139.11865 38161 ft 385 kts 271°
2026-05-06 11:32 35.98270 139.06409 38161 ft 387 kts 271°
2026-05-06 11:33 35.99174 138.98775 38155 ft 388 kts 271°
2026-05-06 11:33 35.99820 138.93291 38148 ft 388 kts 270°
2026-05-06 11:34 36.00420 138.86710 38158 ft 383 kts 265°
2026-05-06 11:34 36.00503 138.80164 38173 ft 382 kts 265°
2026-05-06 11:35 36.00577 138.73585 38177 ft 382 kts 264°
2026-05-06 11:35 36.00646 138.67026 38172 ft 384 kts 264°
2026-05-06 11:36 36.00712 138.60458 38170 ft 382 kts 265°
2026-05-06 11:36 36.00774 138.53903 38171 ft 382 kts 265°
2026-05-06 11:37 36.00832 138.47368 38166 ft 383 kts 264°
2026-05-06 11:37 36.00896 138.39729 38167 ft 383 kts 264°
2026-05-06 11:38 36.00938 138.34268 38169 ft 383 kts 264°
2026-05-06 11:38 36.00994 138.26562 38176 ft 383 kts 264°
2026-05-06 11:39 36.01031 138.21109 38177 ft 382 kts 264°
2026-05-06 11:39 36.01071 138.14542 38176 ft 384 kts 264°
2026-05-06 11:40 36.01114 138.06885 38172 ft 382 kts 264°
2026-05-06 11:40 36.01142 138.01440 38171 ft 383 kts 264°
2026-05-06 11:41 36.01171 137.94846 38169 ft 383 kts 264°
2026-05-06 11:41 36.01198 137.88294 38172 ft 383 kts 263°
2026-05-06 11:42 36.01223 137.80658 38177 ft 383 kts 263°
2026-05-06 11:42 36.01239 137.75165 38189 ft 382 kts 264°
2026-05-06 11:43 36.01255 137.68651 38188 ft 381 kts 264°
2026-05-06 11:43 36.01266 137.62158 38190 ft 382 kts 263°
2026-05-06 11:44 36.01277 137.52287 38179 ft 381 kts 263°
2026-05-06 11:44 36.01280 137.45781 38175 ft 380 kts 264°
2026-05-06 11:45 36.01279 137.39259 38168 ft 380 kts 264°
2026-05-06 11:45 36.01275 137.32721 38185 ft 380 kts 263°
2026-05-06 11:46 36.01267 137.26227 38183 ft 379 kts 263°
2026-05-06 11:46 36.01255 137.19699 38180 ft 381 kts 263°
2026-05-06 11:47 36.01240 137.13222 38175 ft 380 kts 263°
2026-05-06 11:47 36.01221 137.06692 38174 ft 379 kts 264°
2026-05-06 11:48 36.01200 137.00235 38162 ft 378 kts 262°
2026-05-06 11:48 36.01173 136.93694 38166 ft 379 kts 263°
2026-05-06 11:49 36.01144 136.87219 38162 ft 379 kts 263°
2026-05-06 11:49 36.01111 136.80705 38156 ft 381 kts 263°
2026-05-06 11:50 36.01073 136.74161 38164 ft 386 kts 264°
2026-05-06 11:50 36.01035 136.67584 38150 ft 384 kts 264°
2026-05-06 11:51 36.00991 136.60992 38146 ft 385 kts 263°
2026-05-06 11:51 36.00943 136.54411 38134 ft 386 kts 264°
2026-05-06 11:52 36.00892 136.47766 38119 ft 389 kts 264°
2026-05-06 11:52 36.00826 136.39972 38116 ft 391 kts 265°
2026-05-06 11:53 36.00778 136.34416 38115 ft 389 kts 263°
2026-05-06 11:53 36.00714 136.27727 38124 ft 390 kts 264°
2026-05-06 11:54 36.00647 136.21048 38124 ft 392 kts 264°
2026-05-06 11:54 36.00575 136.14336 38118 ft 394 kts 264°
2026-05-06 11:55 36.00487 136.06451 38111 ft 396 kts 264°
2026-05-06 11:55 36.00407 135.99675 38116 ft 399 kts 263°
2026-05-06 11:56 36.00325 135.92909 38114 ft 393 kts 264°
2026-05-06 11:56 36.00251 135.87241 38100 ft 401 kts 264°
2026-05-06 11:57 36.00158 135.80339 38092 ft 402 kts 264°
2026-05-06 11:57 36.00063 135.73485 38090 ft 401 kts 266°
2026-05-06 11:58 35.99962 135.66571 38089 ft 407 kts 265°
2026-05-06 11:58 35.99857 135.59584 38079 ft 407 kts 265°
2026-05-06 11:59 35.99747 135.52626 38078 ft 410 kts 266°
2026-05-06 11:59 35.99632 135.45554 38076 ft 413 kts 266°
2026-05-06 12:00 35.99513 135.38477 38072 ft 412 kts 266°
2026-05-06 12:00 35.99390 135.31404 38092 ft 415 kts 266°
2026-05-06 12:01 35.99262 135.24286 38081 ft 418 kts 266°
2026-05-06 12:01 35.99127 135.17099 38079 ft 422 kts 267°
2026-05-06 12:02 35.98988 135.09827 38075 ft 422 kts 266°
2026-05-06 12:02 35.98819 135.01326 38076 ft 427 kts 266°
2026-05-06 12:03 35.98693 134.95210 38077 ft 431 kts 267°
2026-05-06 12:03 35.98538 134.87852 38075 ft 428 kts 267°
2026-05-06 12:04 35.98352 134.79265 38076 ft 430 kts 267°
2026-05-06 12:04 35.98187 134.71902 38074 ft 429 kts 267°
2026-05-06 12:05 35.98044 134.65727 38069 ft 434 kts 268°
2026-05-06 12:05 35.97869 134.58284 38069 ft 433 kts 268°
2026-05-06 12:06 35.97689 134.50903 38059 ft 433 kts 268°
2026-05-06 12:06 35.97504 134.43417 38061 ft 435 kts 268°
2026-05-06 12:07 35.97315 134.35991 38053 ft 440 kts 268°
2026-05-06 12:07 35.97085 134.27196 38066 ft 439 kts 268°
2026-05-06 12:08 35.96882 134.19641 38057 ft 442 kts 268°
2026-05-06 12:08 35.96709 134.13313 38053 ft 443 kts 269°
2026-05-06 12:09 35.96496 134.05707 38058 ft 442 kts 269°
2026-05-06 12:09 35.96278 133.98090 38060 ft 447 kts 269°
2026-05-06 12:10 35.96055 133.90480 38055 ft 445 kts 269°
2026-05-06 12:10 35.95788 133.81601 38053 ft 446 kts 269°
2026-05-06 12:11 35.95591 133.75215 38054 ft 448 kts 269°
2026-05-06 12:11 35.95350 133.67505 38050 ft 451 kts 269°
2026-05-06 12:12 35.95104 133.59801 38053 ft 449 kts 269°
2026-05-06 12:12 35.94852 133.52071 38057 ft 451 kts 269°
2026-05-06 12:13 35.94596 133.44379 38049 ft 449 kts 269°
2026-05-06 12:13 35.94291 133.35381 38050 ft 452 kts 269°
2026-05-06 12:14 35.94068 133.28954 38053 ft 453 kts 269°
2026-05-06 12:14 35.93794 133.21166 38062 ft 452 kts 269°
2026-05-06 12:15 35.93470 133.12108 38057 ft 455 kts 269°
2026-05-06 12:15 35.93186 133.04372 38062 ft 454 kts 269°
2026-05-06 12:16 35.92946 132.97899 38053 ft 456 kts 269°
2026-05-06 12:16 35.92602 132.88811 38060 ft 456 kts 269°
2026-05-06 12:17 35.92353 132.82341 38049 ft 454 kts 269°
2026-05-06 12:17 35.91998 132.73241 38055 ft 456 kts 269°
2026-05-06 12:18 35.91739 132.66740 38052 ft 455 kts 269°
2026-05-06 12:18 35.91369 132.57571 38053 ft 467 kts 269°
2026-05-06 12:19 35.91096 132.50931 38051 ft 466 kts 269°
2026-05-06 12:19 35.90764 132.42978 38050 ft 464 kts 269°
2026-05-06 12:20 35.90374 132.33794 38051 ft 463 kts 269°
2026-05-06 12:20 35.90031 132.25812 38056 ft 466 kts 269°
2026-05-06 12:21 35.89686 132.17941 38055 ft 463 kts 269°
2026-05-06 12:21 35.89331 132.09963 38053 ft 464 kts 269°
2026-05-06 12:22 35.89037 132.03430 38058 ft 464 kts 269°
2026-05-06 12:22 35.88613 131.94154 38051 ft 462 kts 269°
2026-05-06 12:23 35.88310 131.87610 38050 ft 464 kts 269°
2026-05-06 12:23 35.87877 131.78406 38045 ft 462 kts 269°
2026-05-06 12:24 35.87564 131.71843 38049 ft 462 kts 269°
2026-05-06 12:24 35.87183 131.63951 38047 ft 462 kts 269°
2026-05-06 12:25 35.86797 131.56052 38041 ft 463 kts 270°
2026-05-06 12:25 35.86340 131.46841 38041 ft 462 kts 270°
2026-05-06 12:26 35.86011 131.40315 38039 ft 461 kts 270°
2026-05-06 12:26 35.85611 131.32460 38040 ft 461 kts 269°
2026-05-06 12:27 35.85136 131.23256 38041 ft 460 kts 269°
2026-05-06 12:27 35.84795 131.16739 38042 ft 461 kts 269°
2026-05-06 12:28 35.84310 131.07556 38041 ft 462 kts 269°
2026-05-06 12:28 35.83886 130.99658 38034 ft 461 kts 270°
2026-05-06 12:29 35.83532 130.93135 38031 ft 461 kts 270°
2026-05-06 12:29 35.83102 130.85301 38034 ft 462 kts 270°
2026-05-06 12:30 35.82592 130.76117 38028 ft 459 kts 270°
2026-05-06 12:30 35.82806 130.68368 38022 ft 456 kts 282°
2026-05-06 12:31 35.83649 130.61961 38024 ft 452 kts 282°
2026-05-06 12:31 35.84645 130.54350 38024 ft 453 kts 282°
2026-05-06 12:32 35.85788 130.45433 38021 ft 452 kts 282°
2026-05-06 12:32 35.86594 130.39067 38020 ft 452 kts 282°
2026-05-06 12:33 35.87708 130.30182 38020 ft 450 kts 282°
2026-05-06 12:33 35.88494 130.23874 38009 ft 450 kts 282°
2026-05-06 12:34 35.89596 130.14967 38006 ft 450 kts 282°
2026-05-06 12:34 35.90371 130.08667 37995 ft 449 kts 282°
2026-05-06 12:35 35.91449 129.99849 37986 ft 447 kts 282°
2026-05-06 12:35 35.92368 129.92296 37990 ft 448 kts 282°
2026-05-06 12:36 35.93133 129.85963 37995 ft 447 kts 282°
2026-05-06 12:36 35.94046 129.78384 37990 ft 448 kts 282°
2026-05-06 12:37 35.95099 129.69586 37994 ft 446 kts 282°
2026-05-06 12:37 35.95849 129.63278 37995 ft 447 kts 282°
2026-05-06 12:38 35.96893 129.54457 38003 ft 447 kts 281°
2026-05-06 12:38 35.98152 129.48322 38003 ft 442 kts 293°
2026-05-06 12:39 36.01009 129.41685 38010 ft 440 kts 306°
2026-05-06 12:39 36.04549 129.35580 38009 ft 440 kts 306°
2026-05-06 12:40 36.08125 129.29413 38020 ft 441 kts 305°
2026-05-06 12:40 36.11666 129.23280 38034 ft 438 kts 304°
2026-05-06 12:41 36.15191 129.17156 38035 ft 437 kts 305°
2026-05-06 12:41 36.19281 129.10033 38044 ft 438 kts 305°
2026-05-06 12:42 36.22208 129.04923 38047 ft 435 kts 304°
2026-05-06 12:42 36.25699 128.98819 38041 ft 436 kts 304°
2026-05-06 12:43 36.29772 128.91684 38034 ft 434 kts 304°
2026-05-06 12:43 36.32693 128.86556 38044 ft 435 kts 304°
2026-05-06 12:44 36.36723 128.79469 38033 ft 432 kts 304°
2026-05-06 12:44 36.40169 128.73399 38028 ft 429 kts 304°
2026-05-06 12:45 36.43625 128.67299 38042 ft 431 kts 304°
2026-05-06 12:46 36.48784 128.58173 38027 ft 430 kts 303°
2026-05-06 12:46 36.51627 128.53134 38024 ft 429 kts 303°
2026-05-06 12:47 36.55624 128.46036 38024 ft 430 kts 303°
2026-05-06 12:47 36.58452 128.41005 38016 ft 428 kts 303°
2026-05-06 12:48 36.62427 128.33922 38016 ft 427 kts 303°
2026-05-06 12:48 36.65281 128.28876 38027 ft 427 kts 303°
2026-05-06 12:49 36.69268 128.21889 38029 ft 428 kts 303°
2026-05-06 12:49 36.72711 128.15839 38025 ft 427 kts 303°
2026-05-06 12:50 36.75565 128.10815 38026 ft 427 kts 303°
2026-05-06 12:50 36.79555 128.03778 38018 ft 426 kts 303°
2026-05-06 12:51 36.82418 127.98718 38020 ft 426 kts 303°
2026-05-06 12:51 36.85816 127.92701 38022 ft 426 kts 302°
2026-05-06 12:52 36.89773 127.85674 38029 ft 426 kts 302°
2026-05-06 12:52 36.93182 127.79607 38024 ft 426 kts 302°
2026-05-06 12:53 36.96581 127.73564 38025 ft 427 kts 302°
2026-05-06 12:53 36.99977 127.67518 37644 ft 420 kts 302°
2026-05-06 12:53 37.01072 127.65567 37020 ft 421 kts 302°
2026-05-06 12:54 37.02757 127.62560 35939 ft 425 kts 302°
2026-05-06 12:54 37.04473 127.59487 34524 ft 442 kts 302°
2026-05-06 12:54 37.06252 127.56298 33126 ft 457 kts 302°
2026-05-06 12:54 37.08051 127.53073 31859 ft 460 kts 302°
2026-05-06 12:55 37.09885 127.49788 30649 ft 455 kts 302°
2026-05-06 12:55 37.12251 127.45542 29119 ft 447 kts 302°
2026-05-06 12:55 37.13969 127.42362 27991 ft 440 kts 297°
2026-05-06 12:55 37.15288 127.38967 26864 ft 430 kts 288°
2026-05-06 12:56 37.16085 127.35474 25763 ft 422 kts 279°
2026-05-06 12:56 37.16372 127.31872 24656 ft 415 kts 269°
2026-05-06 12:56 37.16132 127.28304 23569 ft 410 kts 259°
2026-05-06 12:56 37.15380 127.24899 22510 ft 406 kts 250°
2026-05-06 12:57 37.14610 127.22770 21795 ft 405 kts 243°
2026-05-06 12:57 37.13089 127.19887 20744 ft 403 kts 233°
2026-05-06 12:57 37.11161 127.17368 19718 ft 400 kts 230°
2026-05-06 12:57 37.09548 127.14671 18775 ft 387 kts 242°
2026-05-06 12:58 37.08153 127.10645 17556 ft 374 kts 256°
2026-05-06 12:58 37.07701 127.07497 16525 ft 370 kts 266°
2026-05-06 12:58 37.07688 127.05352 15818 ft 368 kts 273°
2026-05-06 12:58 37.08264 127.01204 14460 ft 365 kts 285°
2026-05-06 12:59 37.09120 126.98282 13554 ft 359 kts 290°
2026-05-06 12:59 37.09761 126.96355 13200 ft 356 kts 291°
2026-05-06 12:59 37.11040 126.92534 13017 ft 358 kts 291°
2026-05-06 12:59 37.12003 126.89657 13006 ft 359 kts 291°
2026-05-06 13:00 37.12968 126.86768 13006 ft 359 kts 291°
2026-05-06 13:00 37.13924 126.83905 13005 ft 359 kts 291°
2026-05-06 13:00 37.14885 126.81026 12959 ft 351 kts 291°
2026-05-06 13:00 37.15506 126.79165 12595 ft 351 kts 291°
2026-05-06 13:01 37.16439 126.76366 12169 ft 350 kts 291°
2026-05-06 13:01 37.17385 126.73522 12005 ft 353 kts 291°
2026-05-06 13:01 37.18645 126.69731 12017 ft 355 kts 291°
2026-05-06 13:01 37.19597 126.66865 12022 ft 356 kts 291°
2026-05-06 13:02 37.20548 126.64001 12003 ft 354 kts 291°
2026-05-06 13:02 37.21173 126.62116 12010 ft 354 kts 291°
2026-05-06 13:02 37.22423 126.58344 11989 ft 354 kts 291°
2026-05-06 13:02 37.23411 126.55492 12000 ft 356 kts 295°
2026-05-06 13:03 37.24256 126.53692 11996 ft 356 kts 302°
2026-05-06 13:03 37.26422 126.50561 11976 ft 356 kts 314°
2026-05-06 13:03 37.28150 126.48581 11964 ft 325 kts 315°
2026-05-06 13:03 37.29764 126.46750 11979 ft 305 kts 315°
2026-05-06 13:04 37.31307 126.44997 11970 ft 288 kts 314°
2026-05-06 13:04 37.32750 126.43356 11984 ft 276 kts 314°
2026-05-06 13:04 37.33693 126.42281 12012 ft 274 kts 314°
2026-05-06 13:04 37.35117 126.40655 11987 ft 273 kts 314°
2026-05-06 13:05 37.36951 126.38560 11522 ft 273 kts 314°
2026-05-06 13:05 37.38397 126.36900 10341 ft 296 kts 315°
2026-05-06 13:05 37.39948 126.35126 9246 ft 308 kts 315°
2026-05-06 13:05 37.41615 126.33456 8354 ft 313 kts 321°
2026-05-06 13:06 37.43380 126.31879 7511 ft 315 kts 321°
2026-05-06 13:06 37.45172 126.30296 6633 ft 316 kts 321°
2026-05-06 13:06 37.46962 126.28706 5800 ft 317 kts 321°
2026-05-06 13:06 37.48740 126.27123 4998 ft 316 kts 321°
2026-05-06 13:07 37.50539 126.25516 4179 ft 315 kts 321°
2026-05-06 13:07 37.52312 126.23933 3382 ft 314 kts 321°
2026-05-06 13:07 37.54203 126.22726 3003 ft 305 kts 342°
2026-05-06 13:07 37.56245 126.22588 2774 ft 280 kts
2026-05-06 13:08 37.58013 126.23349 2242 ft 262 kts 31°
2026-05-06 13:08 37.59374 126.24731 2000 ft 242 kts 46°
2026-05-06 13:08 37.60272 126.26437 1973 ft 225 kts 72°
2026-05-06 13:08 37.60452 126.28262 1938 ft 202 kts 98°
2026-05-06 13:09 37.60267 126.29375 1916 ft 187 kts 120°
2026-05-06 13:09 37.59437 126.30477 1887 ft 171 kts 159°
2026-05-06 13:09 37.58380 126.31133 1892 ft 167 kts 154°
2026-05-06 13:09 37.57101 126.32264 1885 ft 168 kts 150°
2026-05-06 13:10 37.56475 126.32829 1881 ft 163 kts 151°
2026-05-06 13:10 37.55273 126.33896 1866 ft 155 kts 152°
2026-05-06 13:10 37.54403 126.34672 1772 ft 154 kts 149°
2026-05-06 13:10 37.53543 126.35466 1557 ft 151 kts 149°
2026-05-06 13:11 37.52691 126.36231 1316 ft 145 kts 152°
2026-05-06 13:11 37.52136 126.36682 1231 ft 143 kts 152°
2026-05-06 13:11 37.51334 126.37394 1036 ft 140 kts 150°
2026-05-06 13:11 37.50269 126.38322 785 ft 141 kts 148°
2026-05-06 13:12 37.49475 126.39027 671 ft 137 kts 149°
2026-05-06 13:12 37.48955 126.39491 545 ft 138 kts 145°
2026-05-06 13:12 37.48176 126.40198 350 ft 136 kts 147°
2026-05-06 13:12 37.47127 126.41122 145 ft 139 kts 147°
2026-05-06 13:13 37.46606 126.41585 47 ft 139 kts 147°
2026-05-06 13:13 37.45884 126.42207 36 ft 109 kts 145°
2026-05-06 13:13 37.45278 126.42756 35 ft 36 kts 143°
2026-05-06 13:13 37.45150 126.42932 35 ft 26 kts 129°
2026-05-06 13:14 37.45098 126.43031 35 ft 0 kts 117°
2026-05-06 13:16 37.45089 126.43053 35 ft 5 kts 117°
2026-05-06 13:16 37.45078 126.43081 35 ft 4 kts 108°
2026-05-06 13:17 37.45064 126.43182 35 ft 12 kts 83°
2026-05-06 13:17 37.45095 126.43278 35 ft 12 kts 60°
2026-05-06 13:17 37.45126 126.43337 35 ft 12 kts 54°
2026-05-06 13:17 37.45191 126.43450 35 ft 12 kts 53°
2026-05-06 13:18 37.45242 126.43533 35 ft 11 kts 48°
2026-05-06 13:18 37.45310 126.43557 35 ft 11 kts 341°
2026-05-06 13:18 37.45375 126.43509 35 ft 11 kts 326°
2026-05-06 13:18 37.45441 126.43452 35 ft 11 kts 324°
2026-05-06 13:19 37.45505 126.43394 35 ft 11 kts 324°
2026-05-06 13:19 37.45571 126.43335 35 ft 11 kts 324°
2026-05-06 13:19 37.45616 126.43295 35 ft 11 kts 323°
2026-05-06 13:19 37.45682 126.43234 35 ft 11 kts 324°
2026-05-06 13:20 37.45750 126.43175 35 ft 11 kts 339°
2026-05-06 13:20 37.45792 126.43174 35 ft 4 kts 18°
2026-05-06 13:20 37.45820 126.43202 35 ft 7 kts 49°
2026-05-06 13:20 37.45870 126.43287 35 ft 14 kts 53°
2026-05-06 13:21 37.45946 126.43336 35 ft 12 kts 340°
2026-05-06 13:21 37.45998 126.43295 35 ft 13 kts 324°
2026-05-06 13:21 37.46080 126.43225 35 ft 7 kts 338°
2026-05-06 13:21 37.46108 126.43228 35 ft 0 kts 21°
2026-05-06 13:22 37.46121 126.43225 35 ft 9 kts 323°
2026-05-06 13:22 37.46190 126.43134 35 ft 6 kts 325°
2026-05-06 13:22 37.46196 126.43132 35 ft 0 kts 345°
2026-05-06 13:22 37.46203 126.43132 35 ft 1 kts 12°
2026-05-06 13:23 37.46217 126.43150 35 ft 2 kts 58°
2026-05-06 13:23 37.46225 126.43169 35 ft 3 kts 68°
2026-05-06 13:23 37.46234 126.43197 35 ft 4 kts 68°
2026-05-06 13:23 37.46242 126.43222 35 ft 1 kts 68°
2026-05-06 13:24 37.46244 126.43229 35 ft 1 kts 68°
2026-05-06 13:24 37.46246 126.43235 35 ft 0 kts 68°